SL-16 DEB, 22377

Orbit data source: Space-Track

SL-16 DEB, 22377 is space debris in LEO originally from a launch on Fri, 25 Dec 1992 UTC launched from the Tyuratam Missile And Space Complex (TTMTR). Debris objects in space refer to the collection of defunct objects orbiting the Earth. Examples of debris include non-operational satellites, rocket bodies, and fragments generated from explosions, collisions, or faulty payload assembly.

Loading next visibility...
Identifier
22377, 1992-093BS
Orbit
LEO
Country
Flag of CISCIS
Related business
Manufacturer
Unknown
Mission
Spacecraft
Bus & Motor
Unknown
Mass
Unknown
Launch date (UTC)
1992-12-25 (33 years ago)
Launch vehicle
Unknown
Launch site
Tyuratam Missile And Space Complex (TTMTR)
Object type
Payload
Rocket body
Debris
Shape & HBR
Unknown shape, 0.1 m
Radar Cross Section
Small (<0.1 m²)

Expand to show TLE details & history
Last TLE update: 7 hours ago

TLE from 7 hours ago
0 SL-16 DEB
1 22377U 92093BS  25303.70397522  .00000428  00000-0  26946-3 0  9996
2 22377  71.0965  46.5096 0056723 341.7979  18.1109 14.09051896683116
Epoch: 2025-10-30T16:53Z
TLE epoch observation values (Epoch: 2025-10-30T16:53:43.459Z)
Latitude
-0.00001°
Longitude
113.81957°
Altitude
825.998 km
Speed
7.46 km/s
True Right ascension
03h 06m 02s
True Declination
0° 00' 00"
Sunlit
Object was in full shadow at epoch
Visualization orbit readout
Latitude
Unknown
Longitude
Unknown
Altitude
Unknown
Speed
Unknown
Apparent Right ascension
Unknown
Apparent Declination
Unknown
Sunlit
N/A
Visualization observer readout
Local Sidereal Time
19:50:29
Azimuth
Unknown
Elevation
Unknown
Doppler factor
Unknown
Orbital elements
Apogee altitude
901.599 km
Perigee altitude
819.479 km
Semi-major axis
7,238.676 km
Eccentricity
0.00567
Inclination
71.0965°
RAAN
46.5096°
Arg. of periapsis
341.7979°
True anomaly
18.31433°
Mean anomaly
18.1109°
Eccentric anomaly
18.21248°
Mean motion
3.52415 °/min
Orbital period
102.15 mins
BSTAR
0.00026946
Loading maneuver chart data...
Computing Atmospheric mass density...
Loading historical data...
Loading historical data...
Loading historical data...
Loading historical data...
Loading historical data...
Loading historical data...
Loading historical data...

Documentation

Showing up to 5 results
|